Shelbyville, IN

8:10 AM EST on December 15, 2019 (GMT -0500)
Shelbyville Municipal

Weather History for KGEZ - October, 2019

Change the Weather History Date:

Wednesday, October 30, 2019

  Actual Average Record
Temperature  
Mean Temperature 51 °F 50 °F  
Max Temperature 53 °F 61 °F 75 °F (1999)
Min Temperature 49 °F 39 °F 24 °F (2008)
Degree Days  
Heating Degree Days 14 15  
Month to date heating degree days 250 336  
Since 1 July heating degree days 253 421  
Cooling Degree Days 0 0  
Month to date cooling degree days 36 11  
Year to date cooling degree days 1330 910  
Moisture  
Dew Point 47 °F    
Average Humidity 88    
Maximum Humidity 96    
Minimum Humidity 80    
Precipitation  
Precipitation 0.87 in 0.08 in 0.87 in (2019)
Month to date precipitation 4.64 3.02  
Year to date precipitation 36.85 36.47  
Sea Level Pressure  
Sea Level Pressure 30.03 in    
Wind  
Wind Speed 7 mph (NNE)    
Max Wind Speed 16 mph    
Max Gust Speed 22 mph    
Visibility 7 miles    
Events Rain    
T = Trace of Precipitation, MM = Missing Value Source: NWS Daily Summary

Daily Weather History Graph

Daily Weather History Graph

Search for Another Location

Airport or City:

Astronomy

Oct. 30, 2019 Rise Set
Actual Time 8:09 AM EDT 6:44 PM EDT
Civil Twilight 7:41 AM EDT 7:11 PM EDT
Nautical Twilight 7:09 AM EDT 7:43 PM EDT
Astronomical Twilight 6:38 AM EDT 8:14 PM EDT
Moon 10:51 AM EDT (10/30) 8:51 PM EDT (10/30)
Length of Visible Light 11h 30m
Length of Day
10h 35m
Waxing Crescent, 8% of the Moon is Illuminated
Oct 30
Waxing Crescent
Nov 4
First Quarter
Nov 12
Full
Nov 19
Last Quarter
Nov 26
New

Hourly Weather History & Observations

Time (EDT) Temp. Dew Point Humidity Pressure Visibility Wind Dir Wind Speed Gust Speed Precip Events Conditions
12:53 AM 48.9 °F 45.0 °F 86% 30.20 in 10.0 mi NNE 8.1 mph - N/A   Overcast
1:53 AM 48.9 °F 45.0 °F 86% 30.21 in 10.0 mi NNE 6.9 mph - N/A   Overcast
2:53 AM 48.9 °F 46.0 °F 90% 30.18 in 7.0 mi NNE 8.1 mph - N/A   Overcast
3:37 AM 50.0 °F 45.0 °F 83% 30.16 in 10.0 mi NE 9.2 mph - N/A   Overcast
3:53 AM 50.0 °F 45.0 °F 83% 30.18 in 10.0 mi NNE 8.1 mph - N/A   Overcast
4:53 AM 50.0 °F 45.0 °F 83% 30.17 in 10.0 mi NE 10.4 mph - N/A   Overcast
5:11 AM 50.0 °F 45.0 °F 83% 30.16 in 10.0 mi NE 9.2 mph - N/A   Overcast
5:26 AM 50.0 °F 45.0 °F 83% 30.16 in 10.0 mi NE 10.4 mph - N/A   Overcast
5:53 AM 50.0 °F 45.0 °F 83% 30.17 in 10.0 mi ENE 9.2 mph - N/A   Overcast
6:26 AM 50.0 °F 44.1 °F 80% 30.16 in 10.0 mi NE 10.4 mph - N/A   Overcast
6:53 AM 48.9 °F 45.0 °F 86% 30.16 in 7.0 mi NE 9.2 mph - 0.02 in Rain Light Rain
7:19 AM 48.9 °F 45.0 °F 86% 30.14 in 8.0 mi East 13.8 mph - 0.01 in Rain Light Rain
7:53 AM 48.9 °F 46.0 °F 90% 30.12 in 6.0 mi ENE 13.8 mph - 0.02 in Rain Light Rain
8:53 AM 48.9 °F 46.0 °F 90% 30.14 in 8.0 mi NNE 8.1 mph - 0.02 in Rain Light Rain
9:53 AM 50.0 °F 46.9 °F 89% 30.12 in 5.0 mi NE 9.2 mph - 0.04 in Rain Light Rain
10:03 AM 50.0 °F 46.9 °F 89% 30.09 in 4.0 mi ENE 13.8 mph - 0.01 in Rain Light Rain
10:43 AM 50.0 °F 46.9 °F 89% 30.08 in 2.5 mi ENE 8.1 mph - 0.11 in Rain Rain
10:53 AM 50.0 °F 46.9 °F 89% 30.08 in 3.0 mi ENE 9.2 mph - 0.14 in Rain Rain
11:10 AM 50.0 °F 48.0 °F 93% 30.07 in 2.5 mi ENE 8.1 mph - 0.08 in Rain Heavy Rain
11:22 AM 51.1 °F 48.0 °F 89% 30.07 in 3.0 mi East 8.1 mph - 0.11 in Rain Light Rain
11:53 AM 51.1 °F 48.9 °F 92% 30.07 in 4.0 mi ENE 5.8 mph - 0.15 in Rain Light Rain
12:05 PM 51.1 °F 48.9 °F 92% 30.06 in 2.0 mi East 6.9 mph - 0.04 in Rain Rain
12:53 PM 51.1 °F 48.9 °F 92% 30.04 in 2.5 mi NE 8.1 mph - 0.24 in Rain Rain
1:38 PM 52.0 °F 50.0 °F 93% 30.01 in 3.0 mi NE 5.8 mph - 0.10 in Rain Rain
1:53 PM 52.0 °F 50.0 °F 93% 29.99 in 4.0 mi NNE 5.8 mph - 0.13 in Rain Light Rain
2:37 PM 52.0 °F 50.0 °F 93% 29.97 in 5.0 mi NNW 8.1 mph - 0.06 in Rain Light Rain
2:53 PM 51.1 °F 48.9 °F 92% 29.97 in 5.0 mi North 9.2 mph - 0.08 in Rain Light Rain
3:07 PM 51.1 °F 48.9 °F 92% 29.95 in 10.0 mi North 9.2 mph - 0.00 in Rain Light Rain
3:53 PM 52.0 °F 48.9 °F 89% 29.94 in 10.0 mi NE 8.1 mph - 0.00 in Rain Light Rain
4:00 PM 52.0 °F 48.9 °F 89% 29.93 in 10.0 mi NNE 8.1 mph - 0.00 in   Overcast
4:21 PM 52.0 °F 48.9 °F 89% 29.91 in 10.0 mi NNE 9.2 mph - 0.01 in Rain Light Rain
4:53 PM 52.0 °F 50.0 °F 93% 29.91 in 10.0 mi NE 5.8 mph - 0.01 in Rain Light Rain
5:53 PM 53.1 °F 51.1 °F 93% 29.91 in 10.0 mi North 4.6 mph - 0.01 in   Overcast
6:53 PM 51.1 °F 48.9 °F 92% 29.90 in 10.0 mi NNW 5.8 mph - N/A   Overcast
7:12 PM 51.1 °F 48.9 °F 92% 29.90 in 7.0 mi North 5.8 mph - N/A   Overcast
7:53 PM 50.0 °F 48.0 °F 93% 29.90 in 4.0 mi NNW 6.9 mph - 0.01 in Rain Light Rain
8:53 PM 50.0 °F 46.9 °F 89% 29.89 in 6.0 mi NNW 5.8 mph - 0.00 in Rain Light Rain
9:53 PM 50.0 °F 48.0 °F 93% 29.89 in 8.0 mi NNW 5.8 mph - 0.00 in   Overcast
10:40 PM 50.0 °F 46.9 °F 89% 29.88 in 10.0 mi NNW 4.6 mph - N/A   Overcast
10:53 PM 50.0 °F 46.9 °F 89% 29.88 in 10.0 mi North 4.6 mph - N/A   Overcast
11:08 PM 50.0 °F 46.9 °F 89% 29.88 in 7.0 mi NNW 4.6 mph - N/A   Overcast
11:36 PM 48.9 °F 46.9 °F 93% 29.87 in 2.0 mi NNW 6.9 mph - N/A   Overcast
11:44 PM 48.9 °F 46.9 °F 93% 29.87 in 1.5 mi NNW 5.8 mph - N/A   Overcast
11:53 PM 48.9 °F 46.9 °F 93% 29.88 in 1.2 mi NNW 5.8 mph - N/A   Overcast